Regional Weather Roundup
Issued by NWS

Home | Current Version | Previous Version | Graphics & Text | Print | Product List | Glossary On
Versions: 1 2 3 4 5 6 7 8 9 10 11 12 13 14 15 16 17 18 19 20 21 22 23 24 25 26 27 28 29 30 31 32 33 34 35 36 37 38 39 40 41 42 43 44 45 46 47 48 49 50
000
ASUS45 KBOI 170610
RWRID

IDAHO REGIONAL WEATHER ROUNDUP
NATIONAL WEATHER SERVICE BOISE ID
1100 PM MST TUE JAN 16 2018

NOTE: "FAIR" INDICATES FEW OR NO CLOUDS BELOW 12000 FEET
WITH NO SIGNIFICANT WEATHER AND/OR OBSTRUCTIONS TO VISIBILITY

IDZ012-014-170700-
SOUTHWEST IDAHO


CITY           SKY/WX    TMP DP  RH WIND       PRES   REMARKS
BOISE          FOG       34  32  92 E3        30.36S VSB 1/2
CALDWELL       PTCLDY    32  31  96 CALM      30.38F FOG
MOUNTAIN HOME  FOG       30  30 100 CALM      30.38R VSB 1/4
$$

IDZ016-017-170700-
SOUTHCENTRAL IDAHO


CITY           SKY/WX    TMP DP  RH WIND       PRES   REMARKS
BURLEY         CLOUDY    37  31  78 W9        30.37R WCI  30
JEROME         CLOUDY    35  32  88 S5        30.39R WCI  31
TWIN FALLS     CLOUDY    34  34 100 S5        30.39S WCI  30
$$

IDZ019>023-170700-
SOUTHEAST IDAHO


CITY           SKY/WX    TMP DP  RH WIND       PRES   REMARKS
IDAHO FALLS    PTCLDY    30  27  88 NW5       30.35R WCI  25
POCATELLO      PTCLDY    29  27  92 S5        30.37R WCI  24
REXBURG        MOCLDY    22  18  85 CALM      30.34R
$$

IDZ006-010-011-018-031-032-170700-
CENTRAL IDAHO MOUNTAINS


CITY           SKY/WX    TMP DP  RH WIND       PRES   REMARKS
MCCALL         FOG       25  23  92 CALM      30.32R VSB 3/4
HAILEY         CLEAR     25  21  86 NW6       30.37R WCI  18
STANLEY        NOT AVBL
SALMON         CLOUDY    27  24  89 CALM      30.43R
CHALLIS        CLEAR     17  14  88 NW3       30.39R
$$

IDZ002-004-006-007-026-170700-
NORTHERN IDAHO


CITY           SKY/WX    TMP DP  RH WIND       PRES   REMARKS
LEWISTON       MOCLDY    37  35  92 E6        30.34S WCI  32
LOWELL         NOT AVBL
COEUR D`ALENE  CLOUDY    30  30 100 CALM      30.33R FOG
MULLAN PASS    MOCLDY    28  26  92 SW9       30.25S WCI  19
$$



USA.gov is the U.S. government's official web portal to all federal, state and local government web resources and services.